FW0527 Weather Reports


time (UTC)temp
F
wind
direction
speed
knots
gust
knots
rain 1hr
in
rain 24hr
in
rain mn
in
humidity
%
barometer
mb
20260902214558 82 324 0.9 12.2 0.00 0.00 0.00 18 1014.3
20260902213056 83 319 3.5 13.0 0.00 0.00 0.00 15 1014.3
20260902211556 85 307 1.7 11.3 0.00 0.00 0.00 15 1014.3
20260902210052 85 319 0.0 12.2 0.00 0.00 0.00 16 1014.5
20260902204630 85 293 0.0 4.3 0.00 0.00 0.00 17 1014.7
20260902203050 85 288 0.0 10.4 0.00 0.00 0.00 17 1015.0
20260902201545 85 295 0.0 12.2 0.00 0.00 0.00 17 1015.1
20260902200044 85 311 0.9 12.2 0.00 0.00 0.00 16 1015.2
20260902194543 84 262 0.0 0.9 0.00 0.00 0.00 16 1015.2
20260902193041 84 302 0.0 10.4 0.00 0.00 0.00 17 1015.2
20260902191541 83 281 0.9 9.6 0.00 0.00 0.00 16 1015.5
20260902190037 83 287 0.0 14.8 0.00 0.00 0.00 15 1015.6
20260902184536 82 317 0.0 10.4 0.00 0.00 0.00 14 1015.7
20260902183051 82 291 0.0 10.4 0.00 0.00 0.00 14 1015.7
20260902181530 81 265 0.0 9.6 0.00 0.00 0.00 13 1015.8
20260902180029 80 292 0.0 11.3 0.00 0.00 0.00 13 1015.7
20260902174528 80 254 0.0 9.6 0.00 0.00 0.00 14 1015.7
20260902173028 80 279 0.0 11.3 0.00 0.00 0.00 14 1015.6
20260902171521 79 312 0.9 7.0 0.00 0.00 0.00 15 1015.4
20260902170017 78 293 0.0 0.9 0.00 0.00 0.00 16 1015.2
20260902164521 77 236 0.0 8.7 0.00 0.00 0.00 15 1015.2
20260902163009 75 263 0.0 0.0 0.00 0.00 0.00 17 1015.1
20260902161505 73 159 0.0 0.0 0.00 0.00 0.00 18 1015.0
20260902160000 69 128 0.0 6.1 0.00 0.00 0.00 23 1015.0
20260902154557 64 122 0.0 0.9 0.00 0.00 0.00 26 1015.0
20260902153104 60 122 0.0 2.6 0.00 0.00 0.00 31 1014.8
20260902151548 56 122 0.0 3.5 0.00 0.00 0.00 34 1014.9
20260902150044 54 123 0.0 0.0 0.00 0.00 0.00 38 1014.9
20260902144540 53 122 0.0 0.0 0.00 0.00 0.00 40 1014.9
20260902143038 52 122 0.0 0.0 0.00 0.00 0.00 41 1014.9
20260902141537 51 122 0.0 0.0 0.00 0.00 0.00 41 1014.9
20260902140036 50 122 0.0 0.0 0.00 0.00 0.00 43 1014.7
20260902134535 50 122 0.0 0.0 0.00 0.00 0.00 41 1014.3
20260902133034 49 122 0.0 0.0 0.00 0.00 0.00 40 1014.3
20260902131532 49 294 0.0 1.7 0.00 0.00 0.00 40 1014.2
20260902130031 49 296 0.0 0.0 0.00 0.00 0.00 40 1014.2
20260902124529 50 296 0.0 0.0 0.00 0.00 0.00 39 1014.3
20260902123030 50 296 0.0 0.0 0.00 0.00 0.00 39 1014.2
20260902121527 50 296 0.0 0.0 0.00 0.00 0.00 38 1014.2
20260902120026 50 296 0.0 0.0 0.00 0.00 0.00 38 1014.1
20260902114526 50 296 0.0 0.0 0.00 0.00 0.00 38 1014.1
20260902113025 50 296 0.0 0.0 0.00 0.00 0.00 38 1014.2
20260902111522 51 296 0.0 0.0 0.00 0.00 0.00 38 1014.2
20260902110035 50 296 0.0 0.0 0.00 0.00 0.00 38 1014.2
20260902104532 50 296 0.0 0.0 0.00 0.00 0.00 38 1014.2
20260902103036 51 296 0.0 0.0 0.00 0.00 0.00 38 1014.3
20260902101517 51 296 0.0 0.0 0.00 0.00 0.00 38 1014.5
20260902100016 51 296 0.0 0.0 0.00 0.00 0.00 38 1014.5
20260902094514 51 296 0.0 0.0 0.00 0.00 0.00 39 1014.5
20260902093012 51 296 0.0 0.0 0.00 0.00 0.00 39 1014.5
20260902091511 52 296 0.0 0.0 0.00 0.00 0.00 40 1014.5
20260902090018 52 296 0.0 0.0 0.00 0.00 0.00 40 1014.5
20260902084508 52 296 0.0 0.0 0.00 0.00 0.00 41 1014.5
20260902083005 52 296 0.0 0.0 0.00 0.00 0.00 44 1014.6
20260902081504 52 296 0.0 0.0 0.00 0.00 0.00 45 1014.6
20260902080004 52 296 0.0 0.0 0.00 0.00 0.00 47 1014.6
20260902074600 52 296 0.0 0.0 0.00 0.00 0.00 49 1014.6
20260902073059 52 296 0.0 0.0 0.00 0.00 0.00 51 1014.6
20260902071658 52 296 0.0 0.0 0.00 0.00 0.00 50 1014.6
20260902070053 53 296 0.0 0.0 0.00 0.00 0.00 48 1014.4
20260902064601 53 296 0.0 0.0 0.00 0.00 0.00 49 1014.3
20260902063104 53 296 0.0 0.0 0.00 0.00 0.00 52 1014.3
20260902060048 54 296 0.0 0.0 0.00 0.00 0.00 54 1013.7
20260902054547 55 296 0.0 0.0 0.00 0.00 0.00 60 1013.6
20260902053047 56 296 0.0 0.0 0.00 0.00 0.00 62 1013.7
20260902051558 56 296 0.0 0.0 0.00 0.00 0.00 61 1013.8
20260902050047 57 296 0.0 0.0 0.00 0.00 0.00 60 1013.9
20260902044604 58 296 0.0 0.0 0.00 0.00 0.00 56 1013.8
20260902043048 59 296 0.0 0.0 0.00 0.00 0.00 55 1013.6
20260902041547 60 296 0.0 0.0 0.00 0.00 0.00 55 1013.3
20260902040044 61 296 0.0 0.0 0.00 0.00 0.00 55 1013.3
20260902034543 62 296 0.0 0.0 0.00 0.00 0.00 53 1013.1
20260902033043 64 296 0.0 0.0 0.00 0.00 0.00 52 1012.8
20260902031555 65 296 0.0 0.0 0.00 0.00 0.00 50 1012.6
20260902030041 66 296 0.0 0.0 0.00 0.00 0.00 49 1012.3
20260902024550 67 296 0.0 0.0 0.00 0.00 0.00 48 1012.2
20260902023041 68 296 0.0 0.0 0.00 0.00 0.00 48 1012.2
20260902021544 69 296 0.0 0.0 0.00 0.00 0.00 47 1012.1
20260902020042 70 296 0.0 0.0 0.00 0.00 0.00 47 1012.1
20260902014541 71 234 0.0 3.5 0.00 0.00 0.00 46 1012.2
20260902013040 72 282 0.0 3.5 0.00 0.00 0.00 43 1012.1
20260902011538 73 207 0.0 7.8 0.00 0.00 0.00 42 1012.2
20260902010041 74 305 0.0 4.3 0.00 0.00 0.00 41 1012.4
20260902004537 75 316 0.0 10.4 0.00 0.00 0.00 42 1012.5
20260902003037 76 238 0.0 0.9 0.00 0.00 0.00 42 1012.4
20260902001536 76 227 0.0 11.3 0.00 0.00 0.00 40 1012.4
20260902000034 77 299 1.7 7.8 0.00 0.00 0.00 38 1012.7
20260901234534 78 217 0.0 8.7 0.00 0.00 0.00 36 1012.7
20260901233032 79 281 0.0 7.0 0.00 0.00 0.00 34 1012.8
20260901231535 79 286 0.0 8.7 0.00 0.00 0.00 35 1012.7
20260901230030 80 259 0.0 9.6 0.00 0.00 0.00 35 1012.8
20260901224528 80 324 1.7 8.7 0.00 0.00 0.00 35 1012.9
20260901223027 81 308 0.0 0.0 0.00 0.00 0.00 33 1012.9
20260901221525 82 298 0.0 10.4 0.00 0.00 0.00 30 1012.8
20260901220023 83 304 0.0 13.0 0.00 0.00 0.00 27 1012.8